TimeCST,TemperatureF,Dew PointF,Humidity,Sea Level PressureIn,VisibilityMPH,Wind Direction,Wind SpeedMPH,Gust SpeedMPH,PrecipitationIn,Events,Conditions,WindDirDegrees,DateUTC
12:15 AM,18.7,14.2,83,30.29,10.0,NNE,3.5,-,N/A,,Scattered Clouds,20,2013-03-06 06:15:00
12:35 AM,16.7,13.1,86,30.30,10.0,NW,3.5,-,N/A,,Clear,310,2013-03-06 06:35:00
12:55 AM,12.4,9.5,88,30.31,10.0,NW,3.5,-,N/A,,Mostly Cloudy,320,2013-03-06 06:55:00
1:15 AM,14.5,12.0,90,30.32,10.0,NNW,3.5,-,N/A,,Mostly Cloudy,330,2013-03-06 07:15:00
1:35 AM,12.4,9.3,88,30.31,10.0,Calm,Calm,-,N/A,,Mostly Cloudy,0,2013-03-06 07:35:00
1:55 AM,11.8,9.9,92,30.32,10.0,Calm,Calm,-,N/A,,Clear,0,2013-03-06 07:55:00
2:15 AM,11.3,9.5,92,30.32,10.0,Calm,Calm,-,N/A,,Clear,0,2013-03-06 08:15:00
2:35 AM,10.4,9.1,95,30.33,10.0,WNW,5.8,-,N/A,,Clear,290,2013-03-06 08:35:00
2:55 AM,10.0,7.9,91,30.32,10.0,Calm,Calm,-,N/A,,Clear,0,2013-03-06 08:55:00
3:15 AM,10.4,8.4,92,30.32,10.0,WNW,4.6,-,N/A,,Clear,290,2013-03-06 09:15:00
3:35 AM,8.2,6.1,91,30.33,10.0,WNW,3.5,-,N/A,,Clear,290,2013-03-06 09:35:00
3:55 AM,10.6,8.6,92,30.34,10.0,Calm,Calm,-,N/A,,Clear,0,2013-03-06 09:55:00
4:15 AM,10.8,8.4,90,30.34,10.0,Calm,Calm,-,N/A,,Clear,0,2013-03-06 10:15:00
4:35 AM,2.8,0.1,88,30.34,10.0,Calm,Calm,-,N/A,,Clear,0,2013-03-06 10:35:00
4:55 AM,3.4,1.0,90,30.34,10.0,Calm,Calm,-,N/A,,Clear,0,2013-03-06 10:55:00
5:15 AM,3.7,1.8,91,30.35,10.0,Calm,Calm,-,N/A,,Clear,0,2013-03-06 11:15:00
5:35 AM,4.3,1.9,90,30.36,10.0,WSW,3.5,-,N/A,,Scattered Clouds,250,2013-03-06 11:35:00
5:55 AM,6.8,4.3,89,30.36,10.0,WSW,4.6,-,N/A,,Overcast,250,2013-03-06 11:55:00
6:15 AM,5.7,3.4,90,30.37,10.0,West,3.5,-,N/A,,Scattered Clouds,260,2013-03-06 12:15:00
6:35 AM,2.7,0.3,90,30.37,10.0,Calm,Calm,-,N/A,,Clear,0,2013-03-06 12:35:00
6:55 AM,1.4,-1.1,89,30.38,10.0,WSW,4.6,-,N/A,,Clear,250,2013-03-06 12:55:00
7:15 AM,6.4,4.8,93,30.38,7.0,West,4.6,-,N/A,,Clear,260,2013-03-06 13:15:00
7:35 AM,7.5,5.0,89,30.39,10.0,West,4.6,-,N/A,,Clear,260,2013-03-06 13:35:00
7:55 AM,8.4,6.1,90,30.39,10.0,West,4.6,-,N/A,,Clear,260,2013-03-06 13:55:00
8:15 AM,11.3,8.4,88,30.40,10.0,WSW,3.5,-,N/A,,Clear,240,2013-03-06 14:15:00
8:35 AM,12.2,9.1,88,30.40,10.0,SW,4.6,-,N/A,,Clear,230,2013-03-06 14:35:00
8:55 AM,14.7,11.3,86,30.40,10.0,WSW,4.6,-,N/A,,Clear,240,2013-03-06 14:55:00
9:15 AM,16.3,12.0,83,30.40,10.0,WSW,5.8,-,N/A,,Clear,250,2013-03-06 15:15:00
9:35 AM,18.0,11.8,77,30.40,10.0,SW,4.6,-,N/A,,Clear,230,2013-03-06 15:35:00
9:55 AM,19.2,11.3,71,30.39,10.0,NW,5.8,-,N/A,,Clear,310,2013-03-06 15:55:00
10:15 AM,20.3,11.5,69,30.39,10.0,NW,9.2,-,N/A,,Clear,320,2013-03-06 16:15:00
10:35 AM,21.6,11.3,65,30.39,10.0,NW,10.4,-,N/A,,Clear,320,2013-03-06 16:35:00
10:55 AM,22.1,11.3,63,30.38,10.0,NW,10.4,-,N/A,,Clear,320,2013-03-06 16:55:00
11:15 AM,22.1,11.1,63,30.38,10.0,NW,10.4,-,N/A,,Clear,320,2013-03-06 17:15:00
11:35 AM,22.8,12.0,63,30.38,10.0,WNW,11.5,-,N/A,,Clear,300,2013-03-06 17:35:00
11:55 AM,23.0,12.2,63,30.38,10.0,NW,9.2,-,N/A,,Clear,320,2013-03-06 17:55:00
12:15 PM,23.5,11.8,61,30.37,10.0,WNW,6.9,-,N/A,,Clear,300,2013-03-06 18:15:00
12:35 PM,23.5,12.6,63,30.37,10.0,NW,10.4,-,N/A,,Scattered Clouds,310,2013-03-06 18:35:00
12:55 PM,24.1,12.7,62,30.36,10.0,NNW,12.7,-,N/A,,Scattered Clouds,330,2013-03-06 18:55:00
1:15 PM,24.6,12.9,61,30.35,10.0,NW,9.2,-,N/A,,Scattered Clouds,320,2013-03-06 19:15:00
1:35 PM,24.8,12.4,59,30.34,10.0,NW,9.2,-,N/A,,Clear,310,2013-03-06 19:35:00
1:55 PM,25.3,12.4,58,30.34,10.0,NW,8.1,-,N/A,,Clear,320,2013-03-06 19:55:00
2:15 PM,25.7,13.1,59,30.33,10.0,NNW,6.9,-,N/A,,Scattered Clouds,340,2013-03-06 20:15:00
2:35 PM,26.4,12.9,57,30.33,10.0,WNW,10.4,-,N/A,,Scattered Clouds,290,2013-03-06 20:35:00
2:55 PM,26.8,13.1,56,30.33,10.0,WNW,8.1,-,N/A,,Scattered Clouds,300,2013-03-06 20:55:00
3:15 PM,26.8,13.8,58,30.33,10.0,NW,5.8,16.1,N/A,,Scattered Clouds,310,2013-03-06 21:15:00
3:35 PM,27.1,13.1,56,30.33,10.0,WNW,5.8,-,N/A,,Scattered Clouds,300,2013-03-06 21:35:00
3:55 PM,27.5,13.5,56,30.33,10.0,NNW,10.4,-,N/A,,Mostly Cloudy,330,2013-03-06 21:55:00
4:15 PM,27.0,13.1,56,30.33,10.0,NW,9.2,-,N/A,,Scattered Clouds,310,2013-03-06 22:15:00
4:35 PM,26.2,12.7,57,30.33,10.0,NW,8.1,-,N/A,,Scattered Clouds,320,2013-03-06 22:35:00
4:55 PM,26.1,12.7,57,30.33,10.0,NW,9.2,-,N/A,,Clear,310,2013-03-06 22:55:00
5:15 PM,24.6,12.2,59,30.33,10.0,WNW,8.1,-,N/A,,Clear,300,2013-03-06 23:15:00
5:35 PM,24.8,12.2,59,30.33,10.0,WNW,8.1,-,N/A,,Clear,290,2013-03-06 23:35:00
5:55 PM,22.8,11.5,62,30.33,10.0,WNW,5.8,-,N/A,,Clear,290,2013-03-06 23:55:00
6:15 PM,22.8,11.3,61,30.33,10.0,WNW,5.8,-,N/A,,Clear,300,2013-03-07 00:15:00
6:35 PM,20.1,10.0,65,30.33,10.0,NW,5.8,-,N/A,,Clear,310,2013-03-07 00:35:00
6:55 PM,18.3,9.7,69,30.34,10.0,NW,4.6,-,N/A,,Clear,310,2013-03-07 00:55:00
7:15 PM,17.8,10.0,72,30.34,10.0,WNW,3.5,-,N/A,,Clear,300,2013-03-07 01:15:00
7:35 PM,17.6,10.0,72,30.35,10.0,NW,4.6,-,N/A,,Clear,310,2013-03-07 01:35:00
7:55 PM,18.0,10.8,73,30.35,10.0,NNW,4.6,-,N/A,,Clear,330,2013-03-07 01:55:00
8:35 PM,16.5,10.2,76,30.36,10.0,NNW,4.6,-,N/A,,Clear,330,2013-03-07 02:35:00
8:55 PM,14.7,9.5,80,30.36,10.0,Calm,Calm,-,N/A,,Clear,0,2013-03-07 02:55:00
9:15 PM,10.8,7.7,87,30.36,10.0,SW,4.6,-,N/A,,Clear,230,2013-03-07 03:15:00
9:35 PM,12.7,8.8,84,30.36,10.0,Calm,Calm,-,N/A,,Clear,0,2013-03-07 03:35:00
9:55 PM,11.8,6.4,79,30.36,10.0,Calm,Calm,-,N/A,,Clear,0,2013-03-07 03:55:00
10:15 PM,11.3,7.3,84,30.36,10.0,NW,3.5,-,N/A,,Clear,310,2013-03-07 04:15:00
10:35 PM,14.9,10.8,84,30.36,10.0,NNW,4.6,-,N/A,,Clear,340,2013-03-07 04:35:00
10:55 PM,9.3,6.1,87,30.36,10.0,Calm,Calm,-,N/A,,Clear,0,2013-03-07 04:55:00
11:15 PM,7.2,4.8,90,30.36,10.0,Calm,Calm,-,N/A,,Clear,0,2013-03-07 05:15:00
11:35 PM,5.2,2.8,90,30.36,10.0,West,3.5,-,N/A,,Clear,270,2013-03-07 05:35:00
11:55 PM,5.0,2.7,90,30.36,10.0,Calm,Calm,-,N/A,,Clear,0,2013-03-07 05:55:00